sat.trackr.live / text

‹ back to catalog

QIANFAN-108

NORAD 66050 · 2025-233T

PAYLOAD ACTIVE UNKNOWN

§ Identity

Operator
Country
PRC
Launch date
2025-10-17
Launch site
TAISC
Launch vehicle
Mass (kg)
RCS (m²)

External: N2YO · Heavens-Above · Gunter

§ Orbital elements

Epoch: 2026-09-20T03:37:29.529408Z

Period
106.59 min
Inclination
89.0055°
Eccentricity
0.0001676
Mean motion
13.51029201 rev/d
Perigee alt
1,067.2 km
Apogee alt
1,069.7 km
Semi-major
7,446.6 km
B*
9.6891e-5
RAAN
33.5762°
Arg perigee
109.2495°
Mean anomaly
250.8838°
Rev number
4,601

§ Raw data

QIANFAN-1081 66050U 25233T   26263.15103622  .00000075  00000+0  96891-4 0  99992 66050  89.0055  33.5762 0001676 109.2495 250.8838 13.51029201 46011

JSON: /api/v1/satellites/66050 · /tle

For live sub-satellite position, see the globe view (requires WebGL).

§ Visibility from observer

Set your observer location to see the next 7 days of passes ≥ 10°. The values pass through the URL so the page stays shareable.

No JS? Fill the form by hand. The geolocation button needs JavaScript.